This is the latest recevied weather packets stored in our database for station/object KE8WMS. If no packets are shown the sender has not sent any weather packets the latest 10 day(s).
| Time | Temp. | Humidity | Pressure | Rain* | Wind** | Luminosity | Snow |
|---|---|---|---|---|---|---|---|
| 1777768054 | 5.56° C | 71% | 1013.5 hPa | 0 mm | - | 1 W/m² | - |
| 1777767751 | 5.56° C | 70% | 1013.3 hPa | 0 mm | - | 2 W/m² | - |
| 1777767447 | 5.56° C | 70% | 1013.2 hPa | 0 mm | - | 4 W/m² | - |
| 1777767143 | 6.11° C | 72% | 1013.3 hPa | 0 mm | - | 5 W/m² | - |
| 1777766842 | 6.11° C | 70% | 1013.1 hPa | 0 mm | - | 7 W/m² | - |
| 1777766539 | 6.67° C | 67% | 1013.3 hPa | 0 mm | - | 10 W/m² | - |
| 1777766235 | 6.67° C | 63% | 1013.1 hPa | 0 mm | - | 13 W/m² | - |
| 1777765933 | 6.67° C | 63% | 1013.1 hPa | 0 mm | - | 15 W/m² | - |
| 1777765629 | 6.67° C | 62% | 1013.7 hPa | 0 mm | - | 16 W/m² | - |
| 1777765327 | 6.67° C | 62% | 1013.6 hPa | 0 mm | - | 19 W/m² | - |
| 1777765022 | 6.67° C | 62% | 1013.6 hPa | 0 mm | - | 22 W/m² | - |
| 1777764720 | 6.67° C | 62% | 1013.4 hPa | 0 mm | - | 27 W/m² | - |
| 1777764415 | 6.67° C | 61% | 1013.5 hPa | 0 mm | - | 31 W/m² | - |
| 1777764113 | 6.67° C | 61% | 1013.4 hPa | 0 mm | - | 32 W/m² | - |
| 1777763809 | 6.67° C | 60% | 1013.5 hPa | 0 mm | - | 34 W/m² | - |
| 1777763507 | 6.67° C | 62% | 1013.3 hPa | 0 mm | - | 41 W/m² | - |
| 1777763205 | 6.67° C | 62% | 1013.4 hPa | 0 mm | - | 43 W/m² | - |
| 1777762904 | 6.67° C | 64% | 1013.5 hPa | 0 mm | - | 46 W/m² | - |
| 1777762599 | 6.67° C | 61% | 1013.3 hPa | 0 mm | - | 52 W/m² | - |
| 1777762297 | 6.67° C | 61% | 1013.2 hPa | 0 mm | - | 60 W/m² | - |
| 1777761992 | 6.67° C | 60% | 1013.1 hPa | 0 mm | - | 69 W/m² | - |
| 1777761689 | 6.67° C | 59% | 1013.1 hPa | 0 mm | - | 72 W/m² | - |
| 1777761387 | 7.22° C | 60% | 1013.1 hPa | 0 mm | - | 77 W/m² | - |
| 1777761085 | 6.67° C | 59% | 1013 hPa | 0 mm | - | 86 W/m² | - |
| 1777760782 | 6.67° C | 59% | 1013.1 hPa | 0 mm | - | 103 W/m² | - |
* Rain latest hour (hover to see other rain measurements)
** Current wind speed in m/s (hover to see current wind gust speed)